Flint, MI

4:54 PM EDT on September 29, 2016 (GMT -0400)
Bishop International

Weather History for KFNT - January, 2014

Change the Weather History Date:

Thursday, January 30, 2014

  Actual Average Record
Temperature  
Mean Temperature 21 °F 22 °F  
Max Temperature 29 °F 30 °F 58 °F (2013)
Min Temperature 12 °F 15 °F -16 °F (1951)
Degree Days  
Heating Degree Days 44 43  
Month to date heating degree days 1484 1279  
Since 1 July heating degree days 4114 3924  
Cooling Degree Days 0 0  
Month to date cooling degree days 0 0  
Year to date cooling degree days 0 0  
Moisture  
Dew Point 9 °F    
Average Humidity 61    
Maximum Humidity 75    
Minimum Humidity 46    
Precipitation  
Precipitation 0.01 in 0.04 in 0.98 in (1947)
Month to date precipitation 2.53 1.58  
Year to date precipitation 2.53 1.58  
Snow  
Snow 0.30 in 0.40 in 5.50 in (1939)
Month to date snowfall 32.9 12.7  
Since 1 July snowfall 51.4 27.4  
Snow Depth 6.00 in    
Sea Level Pressure  
Sea Level Pressure 29.91 in    
Wind  
Wind Speed 15 mph (SSW)    
Max Wind Speed 25 mph    
Max Gust Speed 37 mph    
Visibility 8 miles    
Events Snow    
T = Trace of Precipitation, MM = Missing Value Source: NWS Daily Summary

Daily Weather History Graph

Daily Weather History Graph

Search for Another Location

Airport or City:

Trip Planner

Search our weather history database for the weather conditions in past years. The results will help you decide how hot, cold, wet, or windy it might be!

Date:

Astronomy

Jan. 30, 2014 Rise Set
Actual Time 7:52 AM EST 5:45 PM EST
Civil Twilight 7:21 AM EST 6:15 PM EST
Nautical Twilight 6:47 AM EST 6:49 PM EST
Astronomical Twilight 6:14 AM EST 7:22 PM EST
Moon 7:16 AM EST (1/30) 5:57 PM EST (1/30)
Length of Visible Light 10h 53m
Length of Day
9h 53m
Waning Crescent, 0% of the Moon is Illuminated
Jan 30
Waning Crescent
Jan 30
New
Feb 6
First Quarter
Feb 14
Full
Feb 22
Last Quarter

Hourly Weather History & Observations

Time (EST) Temp. Windchill Dew Point Humidity Pressure Visibility Wind Dir Wind Speed Gust Speed Precip Events Conditions
12:53 AM 12.9 °F -0.2 °F -0.0 °F 56% 30.12 in 10.0 mi SSW 10.4 mph - N/A   Clear
1:53 AM 12.9 °F 1.6 °F 1.0 °F 59% 30.11 in 10.0 mi SSW 8.1 mph - N/A   Clear
2:53 AM 14.0 °F 1.2 °F 1.9 °F 59% 30.10 in 10.0 mi SSW 10.4 mph - N/A   Clear
3:53 AM 12.9 °F -0.2 °F 1.0 °F 59% 30.09 in 10.0 mi South 10.4 mph - N/A   Clear
4:53 AM 12.9 °F -1.6 °F 1.0 °F 59% 30.08 in 10.0 mi South 12.7 mph 20.7 mph N/A   Clear
5:53 AM 12.9 °F -1.6 °F 1.0 °F 59% 30.06 in 10.0 mi South 12.7 mph 20.7 mph N/A   Clear
6:53 AM 14.0 °F -1.4 °F 1.0 °F 56% 30.05 in 10.0 mi South 15.0 mph 24.2 mph N/A   Clear
7:53 AM 15.1 °F -0.6 °F 1.0 °F 54% 30.03 in 10.0 mi South 16.1 mph 26.5 mph N/A   Clear
8:53 AM 17.1 °F 0.6 °F 1.9 °F 52% 30.02 in 10.0 mi South 19.6 mph 26.5 mph N/A   Clear
9:53 AM 19.9 °F 5.2 °F 3.9 °F 50% 30.02 in 10.0 mi South 17.3 mph 27.6 mph N/A   Clear
10:53 AM 21.9 °F 7.3 °F 5.0 °F 48% 30.00 in 10.0 mi South 18.4 mph 26.5 mph N/A   Clear
11:53 AM 24.1 °F 11.0 °F 6.1 °F 46% 29.99 in 10.0 mi South 16.1 mph 21.9 mph N/A   Clear
12:53 PM 24.1 °F 11.0 °F 7.0 °F 48% 29.93 in 10.0 mi South 16.1 mph 24.2 mph N/A   Mostly Cloudy
1:53 PM 25.0 °F 12.2 °F 8.1 °F 49% 29.86 in 10.0 mi South 16.1 mph 25.3 mph N/A   Scattered Clouds
2:53 PM 24.1 °F 9.4 °F 8.1 °F 51% 29.81 in 10.0 mi South 20.7 mph 28.8 mph N/A   Overcast
3:53 PM 24.1 °F 12.5 °F 9.0 °F 53% 29.80 in 10.0 mi South 12.7 mph 25.3 mph N/A   Mostly Cloudy
4:53 PM 25.0 °F 11.7 °F 9.0 °F 51% 29.77 in 10.0 mi South 17.3 mph 26.5 mph N/A   Overcast
5:53 PM 25.0 °F 10.6 °F 9.0 °F 51% 29.79 in 10.0 mi SSW 20.7 mph 28.8 mph N/A   Overcast
6:17 PM 24.8 °F 10.0 °F 10.4 °F 54% 29.76 in 2.5 mi SSW 21.9 mph 35.7 mph 0.00 in Snow Light Snow
6:24 PM 24.8 °F 10.0 °F 15.8 °F 69% 29.76 in 0.8 mi SW 21.9 mph 33.4 mph 0.00 in Snow Light Snow
6:36 PM 23.0 °F 9.2 °F 17.6 °F 80% 29.76 in 1.0 mi SSW 17.3 mph 28.8 mph 0.00 in Snow Light Snow
6:43 PM 23.0 °F 9.6 °F 17.6 °F 80% 29.76 in 1.2 mi SSW 16.1 mph 23.0 mph 0.00 in Snow Light Snow
6:53 PM 23.0 °F 10.1 °F 17.1 °F 78% 29.80 in 2.5 mi SSW 15.0 mph 23.0 mph 0.00 in Snow Light Snow
7:01 PM 23.0 °F 9.6 °F 17.6 °F 80% 29.76 in 3.0 mi SSW 16.1 mph 29.9 mph 0.00 in Snow Light Snow
7:53 PM 24.1 °F 12.0 °F 17.1 °F 75% 29.79 in 7.0 mi SSW 13.8 mph 27.6 mph 0.00 in   Overcast
8:53 PM 25.0 °F 12.6 °F 18.0 °F 75% 29.80 in 9.0 mi SW 15.0 mph 25.3 mph 0.00 in   Overcast
9:53 PM 27.0 °F 16.7 °F 19.0 °F 72% 29.81 in 10.0 mi SW 11.5 mph 19.6 mph N/A   Overcast
10:53 PM 28.9 °F 17.7 °F 21.9 °F 75% 29.81 in 8.0 mi SW 15.0 mph 20.7 mph N/A   Overcast
11:16 PM 28.4 °F 18.0 °F 23.0 °F 80% 29.78 in 9.0 mi SW 12.7 mph - N/A   Overcast
11:53 PM 28.9 °F 19.2 °F 24.1 °F 82% 29.81 in 8.0 mi SW 11.5 mph - N/A   Overcast